Tracking 19800 objects as of 23-Jul-2019
HD Live streaming from Space Station
objects crossing your sky now

COSMOS 1823 DEB

Track COSMOS 1823 DEB now!
10-day predictions


NORAD ID: 18757
Int'l Code: 1987-020AJ
Perigee: 1,191.3 km
Apogee: 1,238.4 km
Inclination: 73.7 °
Period: 109.6 minutes
Semi major axis: 7585 km
RCS: 0.0664 m2 (small)
Launch date: February 20, 1987
Source: Commonwealth of Independent States (former USSR) (CIS)
Launch site: PLESETSK MISSILE AND SPACE COMPLEX (PKMTR)

Note: This is SATELLITE DEBRIS
aabbcc
Your satellite tracking list
Your tracking list is empty




NASA's NSSDC Master Catalog

Two Line Element Set (TLE):
1 18757U 87020AJ  19203.92333987 +.00000731 +00000-0 +20375-2 0  9994
2 18757 073.7338 190.1480 0031012 181.6617 208.5677 13.13998492466371
Source of the keplerian elements: AFSPC